AFR501 LFPG-LOWW

Flight info

Callsign AFR501
Flight time 1h 27m
Altitude 37000
Route LANVII6H/08L LANVI DCT LUPEN UM164 UTABA L607 MOMUK DCT BERAS/N0473F390 T23 BIRGI DCT NEMAL NEMAL2W
Aircraft B77W/H-SDE1E2E3FGHIJ2J3J4J5M1RWXY/LB1D1

Departure

Time 2026-04-25 18:20
Airport Charles de Gaulle International Airport (LFPG)

Arrival

Time 2026-04-25 19:48
Airport Vienna International Airport (LOWW)
Time Latitude Longitude Altitude Speed Heading
2026-04-25 17:40 49.00189 2.56825 367 ft 0 kts 355°
2026-04-25 18:05 49.00184 2.56826 359 ft 3 kts 355°
2026-04-25 18:05 49.00163 2.56829 362 ft 3 kts 355°
2026-04-25 18:06 49.00144 2.56834 362 ft 3 kts 325°
2026-04-25 18:06 49.00129 2.56855 368 ft 3 kts 309°
2026-04-25 18:06 49.00121 2.56882 365 ft 3 kts 277°
2026-04-25 18:06 49.00120 2.56892 367 ft 0 kts 275°
2026-04-25 18:11 49.00120 2.56891 359 ft 0 kts 275°
2026-04-25 18:11 49.00121 2.56887 365 ft 1 kts 275°
2026-04-25 18:12 49.00122 2.56867 359 ft 2 kts 275°
2026-04-25 18:12 49.00123 2.56838 359 ft 3 kts 274°
2026-04-25 18:12 49.00123 2.56800 359 ft 4 kts 267°
2026-04-25 18:12 49.00121 2.56753 359 ft 5 kts 266°
2026-04-25 18:13 49.00118 2.56697 363 ft 5 kts 265°
2026-04-25 18:13 49.00115 2.56642 365 ft 6 kts 262°
2026-04-25 18:13 49.00097 2.56589 368 ft 6 kts 224°
2026-04-25 18:14 49.00018 2.56575 365 ft 5 kts 176°
2026-04-25 18:14 48.99996 2.56577 366 ft 0 kts 176°
2026-04-25 18:14 48.99992 2.56578 366 ft 4 kts 175°
2026-04-25 18:15 48.99931 2.56560 364 ft 10 kts 220°
2026-04-25 18:15 48.99910 2.56453 364 ft 11 kts 267°
2026-04-25 18:15 48.99906 2.56337 359 ft 11 kts 266°
2026-04-25 18:15 48.99900 2.56221 363 ft 11 kts 265°
2026-04-25 18:16 48.99894 2.56115 359 ft 8 kts 265°
2026-04-25 18:16 48.99889 2.56023 361 ft 9 kts 265°
2026-04-25 18:16 48.99891 2.55832 362 ft 10 kts 238°
2026-04-25 18:17 48.99832 2.55797 364 ft 10 kts 176°
2026-04-25 18:17 48.99789 2.55802 366 ft 5 kts 175°
2026-04-25 18:17 48.99751 2.55806 364 ft 6 kts 175°
2026-04-25 18:17 48.99722 2.55810 361 ft 0 kts 175°
2026-04-25 18:18 48.99718 2.55811 360 ft 1 kts 175°
2026-04-25 18:18 48.99708 2.55812 363 ft 0 kts 175°
2026-04-25 18:18 48.99706 2.55812 363 ft 1 kts 175°
2026-04-25 18:18 48.99683 2.55815 365 ft 6 kts 175°
2026-04-25 18:19 48.99637 2.55825 361 ft 7 kts 163°
2026-04-25 18:19 48.99607 2.55884 365 ft 8 kts 103°
2026-04-25 18:19 48.99607 2.55969 358 ft 8 kts 85°
2026-04-25 18:19 48.99621 2.56230 363 ft 68 kts 85°
2026-04-25 18:20 48.99691 2.57595 367 ft 188 kts 85°
2026-04-25 18:20 48.99794 2.59867 1199 ft 233 kts 84°
2026-04-25 18:20 48.99912 2.62340 3152 ft 226 kts 85°
2026-04-25 18:20 49.00033 2.64705 4567 ft 227 kts 83°
2026-04-25 18:21 49.00183 2.67242 5081 ft 255 kts 83°
2026-04-25 18:21 49.00337 2.69967 6022 ft 260 kts 83°
2026-04-25 18:21 49.00490 2.72754 6979 ft 269 kts 83°
2026-04-25 18:21 49.00643 2.75645 7905 ft 278 kts 83°
2026-04-25 18:22 49.00740 2.78615 8825 ft 286 kts 92°
2026-04-25 18:22 49.00683 2.79639 9146 ft 288 kts 95°
2026-04-25 18:22 49.00237 2.84757 10696 ft 300 kts 96°
2026-04-25 18:22 48.99946 2.88029 11168 ft 327 kts 96°
2026-04-25 18:23 48.99624 2.91628 11407 ft 359 kts 97°
2026-04-25 18:23 48.99273 2.95542 11842 ft 383 kts 97°
2026-04-25 18:23 48.98905 2.99619 12711 ft 394 kts 97°
2026-04-25 18:23 48.98528 3.03785 13735 ft 401 kts 97°
2026-04-25 18:24 48.98144 3.08012 14748 ft 406 kts 97°
2026-04-25 18:24 48.97755 3.12297 15696 ft 412 kts 97°
2026-04-25 18:24 48.97359 3.16650 16594 ft 418 kts 97°
2026-04-25 18:24 48.96955 3.21073 17511 ft 425 kts 97°
2026-04-25 18:25 48.96543 3.25561 18417 ft 432 kts 97°
2026-04-25 18:25 48.96124 3.30115 19079 ft 437 kts 97°
2026-04-25 18:25 48.95704 3.34662 19168 ft 441 kts 97°
2026-04-25 18:25 48.95274 3.39277 19163 ft 439 kts 97°
2026-04-25 18:26 48.94846 3.43866 19167 ft 438 kts 97°
2026-04-25 18:26 48.94417 3.48454 19166 ft 438 kts 97°
2026-04-25 18:26 48.93984 3.53057 19423 ft 444 kts 97°
2026-04-25 18:26 48.93620 3.57743 20225 ft 447 kts 94°
2026-04-25 18:27 48.93358 3.62467 21131 ft 449 kts 94°
2026-04-25 18:27 48.93120 3.67222 21968 ft 453 kts 94°
2026-04-25 18:27 48.92883 3.72035 22726 ft 459 kts 94°
2026-04-25 18:27 48.92636 3.76900 23447 ft 465 kts 94°
2026-04-25 18:28 48.92377 3.81834 24111 ft 470 kts 95°
2026-04-25 18:28 48.92109 3.86808 24738 ft 474 kts 95°
2026-04-25 18:28 48.91834 3.91823 25366 ft 478 kts 95°
2026-04-25 18:29 48.91276 4.01860 26544 ft 487 kts 95°
2026-04-25 18:29 48.90988 4.06999 27089 ft 491 kts 95°
2026-04-25 18:30 48.89487 4.22558 28674 ft 502 kts 108°
2026-04-25 18:30 48.88293 4.27560 29160 ft 505 kts 114°
2026-04-25 18:30 48.86723 4.32344 29618 ft 507 kts 120°
2026-04-25 18:30 48.84985 4.37031 30050 ft 510 kts 121°
2026-04-25 18:31 48.83223 4.41703 30554 ft 510 kts 121°
2026-04-25 18:31 48.81464 4.46365 31111 ft 508 kts 121°
2026-04-25 18:31 48.79724 4.51011 31709 ft 505 kts 121°
2026-04-25 18:31 48.78002 4.55639 32269 ft 503 kts 121°
2026-04-25 18:32 48.76291 4.60262 32790 ft 502 kts 121°
2026-04-25 18:32 48.74585 4.64878 33282 ft 501 kts 121°
2026-04-25 18:32 48.72884 4.69482 33793 ft 500 kts 121°
2026-04-25 18:32 48.71183 4.74077 34277 ft 499 kts 121°
2026-04-25 18:33 48.69507 4.78594 34690 ft 498 kts 121°
2026-04-25 18:33 48.67808 4.83163 35022 ft 499 kts 121°
2026-04-25 18:33 48.66102 4.87741 35369 ft 499 kts 121°
2026-04-25 18:33 48.64379 4.92357 35769 ft 498 kts 121°
2026-04-25 18:34 48.62700 4.96847 36168 ft 496 kts 121°
2026-04-25 18:34 48.61045 5.01266 36534 ft 496 kts 121°
2026-04-25 18:34 48.59344 5.05797 36891 ft 495 kts 121°
2026-04-25 18:34 48.57639 5.10332 37110 ft 498 kts 121°
2026-04-25 18:35 48.54201 5.19452 37142 ft 499 kts 121°
2026-04-25 18:35 48.50784 5.28492 37144 ft 493 kts 121°
2026-04-25 18:36 48.47383 5.37455 37152 ft 492 kts 121°
2026-04-25 18:36 48.43977 5.46399 37151 ft 492 kts 121°
2026-04-25 18:37 48.40564 5.55334 37147 ft 492 kts 121°
2026-04-25 18:37 48.37140 5.64273 37141 ft 494 kts 121°
2026-04-25 18:38 48.33718 5.73234 37140 ft 494 kts 118°
2026-04-25 18:38 48.32432 5.78021 37140 ft 496 kts 105°
2026-04-25 18:38 48.31748 5.83103 37142 ft 496 kts 96°
2026-04-25 18:39 48.31626 5.88208 37124 ft 496 kts 85°
2026-04-25 18:39 48.31970 5.93350 37145 ft 495 kts 83°
2026-04-25 18:39 48.32459 6.03561 37136 ft 498 kts 89°
2026-04-25 18:40 48.32367 6.13975 37129 ft 499 kts 90°
2026-04-25 18:40 48.32256 6.22722 37131 ft 500 kts 90°
2026-04-25 18:41 48.32149 6.33175 37134 ft 500 kts 90°
2026-04-25 18:41 48.32061 6.43554 37139 ft 499 kts 90°
2026-04-25 18:42 48.31986 6.52292 37136 ft 499 kts 89°
2026-04-25 18:42 48.31870 6.64390 37133 ft 497 kts 90°
2026-04-25 18:43 48.31758 6.74775 37138 ft 497 kts 90°
2026-04-25 18:43 48.31636 6.85143 37134 ft 496 kts 90°
2026-04-25 18:44 48.31505 6.95491 37134 ft 495 kts 89°
2026-04-25 18:44 48.31367 7.05716 37114 ft 495 kts 89°
2026-04-25 18:45 48.30746 7.15939 37124 ft 497 kts 101°
2026-04-25 18:45 48.29191 7.26048 37113 ft 497 kts 102°
2026-04-25 18:46 48.27583 7.36141 37107 ft 497 kts 102°
2026-04-25 18:46 48.26001 7.46256 37109 ft 498 kts 102°
2026-04-25 18:47 48.24435 7.56392 37110 ft 499 kts 102°
2026-04-25 18:47 48.22863 7.66541 37108 ft 499 kts 102°
2026-04-25 18:48 48.21279 7.76684 37116 ft 500 kts 102°
2026-04-25 18:48 48.19682 7.86843 37110 ft 500 kts 102°
2026-04-25 18:49 48.18076 7.96988 37116 ft 500 kts 102°
2026-04-25 18:49 48.16492 8.06938 37115 ft 500 kts 102°
2026-04-25 18:50 48.14869 8.17067 37125 ft 500 kts 102°
2026-04-25 18:50 48.13239 8.27179 37127 ft 499 kts 102°
2026-04-25 18:51 48.11880 8.35568 37128 ft 499 kts 102°
2026-04-25 18:51 48.09958 8.47356 37127 ft 498 kts 102°
2026-04-25 18:52 48.08305 8.57427 37127 ft 498 kts 102°
2026-04-25 18:52 48.06643 8.67493 37122 ft 499 kts 102°
2026-04-25 18:53 48.04973 8.77553 37118 ft 499 kts 102°
2026-04-25 18:53 48.03292 8.87614 37111 ft 499 kts 102°
2026-04-25 18:54 48.00790 9.02483 37111 ft 499 kts 103°
2026-04-25 18:55 47.99090 9.12512 37100 ft 499 kts 103°
2026-04-25 18:55 47.97380 9.22541 37098 ft 498 kts 103°
2026-04-25 18:56 47.95662 9.32562 37101 ft 498 kts 103°
2026-04-25 18:56 47.93936 9.42573 37106 ft 498 kts 103°
2026-04-25 18:57 47.92201 9.52578 37099 ft 499 kts 103°
2026-04-25 18:57 47.90455 9.62593 37100 ft 498 kts 103°
2026-04-25 18:58 47.88703 9.72584 37104 ft 498 kts 103°
2026-04-25 18:58 47.86057 9.87574 37104 ft 499 kts 103°
2026-04-25 18:59 47.82045 10.07196 37111 ft 499 kts 110°
2026-04-25 19:00 47.78182 10.21609 37124 ft 500 kts 110°
2026-04-25 19:01 47.74354 10.35995 37117 ft 500 kts 110°
2026-04-25 19:01 47.71805 10.45612 37117 ft 500 kts 110°
2026-04-25 19:02 47.67950 10.60087 37121 ft 500 kts 110°
2026-04-25 19:03 47.64961 10.71236 37110 ft 500 kts 110°
2026-04-25 19:03 47.61523 10.83993 37101 ft 500 kts 110°
2026-04-25 19:04 47.57635 10.98342 37090 ft 501 kts 110°
2026-04-25 19:05 47.52467 11.17277 36816 ft 496 kts 110°
2026-04-25 19:05 47.51166 11.22023 36422 ft 498 kts 110°
2026-04-25 19:06 47.49859 11.26779 35979 ft 500 kts 110°
2026-04-25 19:06 47.47227 11.36328 35255 ft 501 kts 110°
2026-04-25 19:06 47.45915 11.41074 35133 ft 498 kts 110°
2026-04-25 19:07 47.41973 11.55273 35078 ft 504 kts 111°
2026-04-25 19:08 47.37949 11.69691 35072 ft 508 kts 110°
2026-04-25 19:09 47.35248 11.84659 35048 ft 501 kts 93°
2026-04-25 19:09 47.35155 11.88036 35058 ft 497 kts 84°
2026-04-25 19:09 47.37224 11.99285 35025 ft 481 kts 60°
2026-04-25 19:10 47.38755 12.03429 34754 ft 469 kts 57°
2026-04-25 19:10 47.40348 12.07611 34129 ft 468 kts 57°
2026-04-25 19:10 47.41948 12.11816 33122 ft 472 kts 57°
2026-04-25 19:10 47.43559 12.16077 32039 ft 478 kts 58°
2026-04-25 19:11 47.45169 12.20381 31208 ft 478 kts 58°
2026-04-25 19:11 47.46758 12.24670 30619 ft 473 kts 58°
2026-04-25 19:11 47.48323 12.28918 30118 ft 467 kts 58°
2026-04-25 19:11 47.49860 12.33105 29522 ft 461 kts 58°
2026-04-25 19:12 47.51382 12.37256 28858 ft 457 kts 58°
2026-04-25 19:12 47.52893 12.41381 28202 ft 454 kts 58°
2026-04-25 19:12 47.54390 12.45472 27546 ft 451 kts 59°
2026-04-25 19:12 47.55878 12.49543 26973 ft 447 kts 59°
2026-04-25 19:13 47.57352 12.53584 26401 ft 444 kts 59°
2026-04-25 19:13 47.58794 12.57541 25820 ft 441 kts 59°
2026-04-25 19:13 47.60247 12.61533 25239 ft 440 kts 59°
2026-04-25 19:13 47.61692 12.65512 24672 ft 438 kts 59°
2026-04-25 19:14 47.63138 12.69496 24035 ft 438 kts 60°
2026-04-25 19:14 47.63625 12.70840 23827 ft 439 kts 60°
2026-04-25 19:14 47.66014 12.77443 22862 ft 434 kts 60°
2026-04-25 19:14 47.67430 12.81366 22366 ft 429 kts 60°
2026-04-25 19:15 47.68828 12.85244 21869 ft 424 kts 60°
2026-04-25 19:15 47.70213 12.89093 21342 ft 421 kts 60°
2026-04-25 19:15 47.71588 12.92921 20801 ft 419 kts 59°
2026-04-25 19:15 47.72957 12.96733 20283 ft 417 kts 59°
2026-04-25 19:16 47.74280 13.00422 19819 ft 414 kts 59°
2026-04-25 19:16 47.75626 13.04184 19357 ft 411 kts 59°
2026-04-25 19:16 47.76961 13.07921 18894 ft 408 kts 59°
2026-04-25 19:16 47.78287 13.11637 18440 ft 405 kts 59°
2026-04-25 19:17 47.79602 13.15324 17940 ft 402 kts 60°
2026-04-25 19:17 47.80905 13.18987 17424 ft 400 kts 59°
2026-04-25 19:17 47.82205 13.22642 16886 ft 398 kts 59°
2026-04-25 19:17 47.83496 13.26279 16416 ft 396 kts 59°
2026-04-25 19:18 47.84775 13.29889 15951 ft 393 kts 59°
2026-04-25 19:18 47.86036 13.33454 15829 ft 381 kts 59°
2026-04-25 19:18 47.87131 13.37034 15960 ft 388 kts 68°
2026-04-25 19:18 47.87795 13.41001 16024 ft 400 kts 79°
2026-04-25 19:19 47.88036 13.45146 16070 ft 403 kts 86°
2026-04-25 19:19 47.88104 13.49327 16064 ft 403 kts 87°
2026-04-25 19:19 47.88152 13.53491 16062 ft 402 kts 87°
2026-04-25 19:19 47.88166 13.54839 16069 ft 402 kts 87°
2026-04-25 19:20 47.88244 13.61756 16070 ft 402 kts 87°
2026-04-25 19:20 47.88297 13.65917 16077 ft 401 kts 87°
2026-04-25 19:20 47.88353 13.70075 16070 ft 401 kts 87°
2026-04-25 19:20 47.88412 13.74239 16077 ft 402 kts 87°
2026-04-25 19:21 47.88472 13.78401 16064 ft 402 kts 87°
2026-04-25 19:21 47.88589 13.86730 16063 ft 403 kts 87°
2026-04-25 19:21 47.88646 13.90895 16066 ft 403 kts 87°
2026-04-25 19:22 47.88701 13.95066 16056 ft 403 kts 87°
2026-04-25 19:22 47.88755 13.99233 16062 ft 403 kts 87°
2026-04-25 19:22 47.88857 14.07463 16060 ft 403 kts 87°
2026-04-25 19:23 47.88906 14.11582 16052 ft 403 kts 87°
2026-04-25 19:23 47.88999 14.19939 16059 ft 404 kts 87°
2026-04-25 19:23 47.89045 14.24130 16049 ft 406 kts 87°
2026-04-25 19:24 47.89088 14.28332 16052 ft 405 kts 87°
2026-04-25 19:24 47.89130 14.32525 16055 ft 405 kts 87°
2026-04-25 19:24 47.89209 14.40926 16052 ft 405 kts 87°
2026-04-25 19:25 47.89283 14.49310 16046 ft 404 kts 88°
2026-04-25 19:25 47.89317 14.53494 16051 ft 404 kts 88°
2026-04-25 19:25 47.89350 14.57676 16048 ft 404 kts 88°
2026-04-25 19:26 47.89379 14.61867 16055 ft 405 kts 88°
2026-04-25 19:26 47.89410 14.66060 16035 ft 405 kts 88°
2026-04-25 19:26 47.89439 14.70260 16038 ft 405 kts 88°
2026-04-25 19:26 47.89468 14.74448 16049 ft 405 kts 88°
2026-04-25 19:27 47.89493 14.78647 16034 ft 406 kts 88°
2026-04-25 19:27 47.89501 14.80065 16041 ft 405 kts 88°
2026-04-25 19:27 47.89536 14.87046 16040 ft 405 kts 88°
2026-04-25 19:27 47.89556 14.91236 16048 ft 405 kts 88°
2026-04-25 19:28 47.89576 14.95437 16038 ft 406 kts 88°
2026-04-25 19:28 47.89593 14.99648 16034 ft 406 kts 88°
2026-04-25 19:28 47.89609 15.03738 16036 ft 406 kts 88°
2026-04-25 19:28 47.89619 15.06520 16043 ft 406 kts 88°
2026-04-25 19:29 47.89633 15.10725 16040 ft 406 kts 88°
2026-04-25 19:29 47.89645 15.14936 16040 ft 406 kts 88°
2026-04-25 19:29 47.89668 15.19142 16024 ft 405 kts 87°
2026-04-25 19:29 47.89745 15.23338 16031 ft 405 kts 86°
2026-04-25 19:30 47.89853 15.27534 16026 ft 405 kts 86°
2026-04-25 19:30 47.89954 15.31725 16027 ft 405 kts 86°
2026-04-25 19:30 47.90050 15.35923 16030 ft 406 kts 86°
2026-04-25 19:30 47.90143 15.40114 16025 ft 405 kts 86°
2026-04-25 19:31 47.90232 15.44301 16031 ft 404 kts 87°
2026-04-25 19:31 47.90319 15.48492 16030 ft 405 kts 87°
2026-04-25 19:31 47.90403 15.52694 16020 ft 406 kts 87°
2026-04-25 19:31 47.90484 15.56897 16029 ft 406 kts 87°
2026-04-25 19:32 47.90564 15.61107 16016 ft 407 kts 87°
2026-04-25 19:32 47.90642 15.65328 16011 ft 407 kts 87°
2026-04-25 19:32 47.90719 15.69479 15968 ft 406 kts 87°
2026-04-25 19:32 47.90769 15.72315 15791 ft 404 kts 87°
2026-04-25 19:33 47.90863 15.77841 15363 ft 402 kts 87°
2026-04-25 19:33 47.90933 15.81993 15030 ft 400 kts 87°
2026-04-25 19:33 47.91001 15.86135 14707 ft 399 kts 87°
2026-04-25 19:33 47.91069 15.90252 14508 ft 394 kts 87°
2026-04-25 19:34 47.91135 15.94317 14204 ft 392 kts 87°
2026-04-25 19:34 47.91198 15.98379 13905 ft 391 kts 88°
2026-04-25 19:34 47.91258 16.02312 13619 ft 390 kts 88°
2026-04-25 19:34 47.91318 16.06329 13340 ft 387 kts 88°
2026-04-25 19:35 47.91376 16.10329 13043 ft 385 kts 88°
2026-04-25 19:35 47.91431 16.14300 12867 ft 380 kts 88°
2026-04-25 19:35 47.91484 16.18162 12762 ft 363 kts 88°
2026-04-25 19:35 47.91532 16.21824 12599 ft 344 kts 88°
2026-04-25 19:36 47.91577 16.25321 12219 ft 330 kts 88°
2026-04-25 19:36 47.91620 16.28670 11911 ft 317 kts 87°
2026-04-25 19:36 47.91661 16.31906 11575 ft 309 kts 87°
2026-04-25 19:36 47.91702 16.35143 11305 ft 317 kts 87°
2026-04-25 19:37 47.91744 16.38460 10970 ft 322 kts 87°
2026-04-25 19:37 47.91784 16.41807 10606 ft 323 kts 87°
2026-04-25 19:37 47.91822 16.45133 10244 ft 316 kts 87°
2026-04-25 19:37 47.91857 16.48354 9848 ft 305 kts 87°
2026-04-25 19:38 47.91890 16.51459 9440 ft 295 kts 87°
2026-04-25 19:38 47.91921 16.54424 9034 ft 285 kts 87°
2026-04-25 19:38 47.91951 16.57328 8637 ft 276 kts 87°
2026-04-25 19:38 47.91980 16.60144 8238 ft 268 kts 87°
2026-04-25 19:39 47.92008 16.62917 7836 ft 260 kts 87°
2026-04-25 19:39 47.92034 16.65584 7449 ft 255 kts 87°
2026-04-25 19:39 47.92057 16.68154 7250 ft 247 kts 87°
2026-04-25 19:39 47.92082 16.70743 7111 ft 253 kts 86°
2026-04-25 19:40 47.92108 16.73411 6994 ft 260 kts 87°
2026-04-25 19:40 47.92377 16.76025 6797 ft 254 kts 65°
2026-04-25 19:40 47.93407 16.78105 6466 ft 249 kts 36°
2026-04-25 19:40 47.94848 16.79496 6067 ft 247 kts 27°
2026-04-25 19:41 47.96366 16.80737 5621 ft 251 kts 25°
2026-04-25 19:41 47.97898 16.81964 5171 ft 247 kts 25°
2026-04-25 19:41 47.99385 16.83163 4745 ft 238 kts 25°
2026-04-25 19:41 48.00350 16.83946 4457 ft 229 kts 25°
2026-04-25 19:42 48.02206 16.85153 3801 ft 211 kts
2026-04-25 19:42 48.03569 16.84764 3347 ft 195 kts 327°
2026-04-25 19:42 48.04377 16.83307 3040 ft 177 kts 289°
2026-04-25 19:42 48.04369 16.81505 3051 ft 180 kts 265°
2026-04-25 19:43 48.04205 16.79659 2993 ft 175 kts 276°
2026-04-25 19:43 48.04545 16.77994 3011 ft 165 kts 294°
2026-04-25 19:43 48.04913 16.76438 2984 ft 152 kts 291°
2026-04-25 19:43 48.05281 16.75017 3001 ft 143 kts 295°
2026-04-25 19:44 48.05699 16.73628 2885 ft 149 kts 296°
2026-04-25 19:44 48.06137 16.72249 2708 ft 145 kts 297°
2026-04-25 19:44 48.06557 16.70943 2493 ft 132 kts 297°
2026-04-25 19:44 48.06940 16.69764 2338 ft 122 kts 298°
2026-04-25 19:45 48.07312 16.68627 2187 ft 121 kts 298°
2026-04-25 19:45 48.07677 16.67502 2030 ft 118 kts 298°
2026-04-25 19:45 48.08032 16.66411 1867 ft 115 kts 298°
2026-04-25 19:45 48.08383 16.65332 1732 ft 116 kts 295°
2026-04-25 19:46 48.08738 16.64239 1562 ft 116 kts 298°
2026-04-25 19:46 48.09111 16.63105 1436 ft 125 kts 296°
2026-04-25 19:46 48.09491 16.61916 1268 ft 128 kts 295°
2026-04-25 19:46 48.09880 16.60712 1110 ft 130 kts 295°
2026-04-25 19:47 48.10268 16.59496 948 ft 130 kts 295°
2026-04-25 19:47 48.10660 16.58278 744 ft 130 kts 295°
2026-04-25 19:47 48.11056 16.57086 636 ft 127 kts 296°
2026-04-25 19:47 48.11393 16.56062 632 ft 88 kts 296°
2026-04-25 19:48 48.11587 16.55483 631 ft 33 kts 303°
2026-04-25 19:48 48.11641 16.55372 628 ft 2 kts 307°
2026-04-25 19:48 48.11689 16.55295 627 ft 27 kts 316°
2026-04-25 19:48 48.11772 16.55186 624 ft 10 kts 323°
2026-04-25 19:49 48.11842 16.55145 626 ft 1 kts 357°
2026-04-25 19:49 48.11850 16.55145 626 ft 0 kts 358°
2026-04-25 19:50 48.11899 16.55196 624 ft 7 kts 81°
2026-04-25 19:50 48.11851 16.55321 620 ft 12 kts 122°
2026-04-25 19:51 48.11810 16.55437 623 ft 13 kts 116°
2026-04-25 19:51 48.11774 16.55549 630 ft 10 kts 115°
2026-04-25 19:51 48.11743 16.55645 626 ft 10 kts 117°
2026-04-25 19:51 48.11719 16.55743 628 ft 10 kts 84°
2026-04-25 19:52 48.11777 16.55797 620 ft 12 kts 356°
2026-04-25 19:52 48.11856 16.55774 625 ft 8 kts 349°
2026-04-25 19:52 48.11895 16.55763 623 ft 0 kts 349°